Beaufort, NC

11:51 AM EDT on August 25, 2019 (GMT -0400)
Smith

Weather History for KMRH - July, 2019

Change the Weather History Date:

Tuesday, July 16, 2019

  Actual Average Record
Temperature  
Mean Temperature 84 °F -  
Max Temperature 89 °F 87 °F 96 °F (1983)
Min Temperature 79 °F 72 °F 64 °F (2001)
Cooling Degree Days 19    
Growing Degree Days 34 (Base 50)    
Moisture  
Dew Point 78 °F    
Average Humidity 81    
Maximum Humidity 94    
Minimum Humidity 70    
Precipitation  
Precipitation 0.00 in - - ()
Sea Level Pressure  
Sea Level Pressure 30.10 in    
Wind  
Wind Speed 5 mph (SSW)    
Max Wind Speed 13 mph    
Max Gust Speed -    
Visibility 10 miles    
Events      
Averages and records for this station are not official NWS values.
T = Trace of Precipitation, MM = Missing Value Source: NWS Daily Summary

Daily Weather History Graph

Daily Weather History Graph

Search for Another Location

Airport or City:

Astronomy

Jul. 16, 2019 Rise Set
Actual Time 6:05 AM EDT 8:19 PM EDT
Civil Twilight 5:36 AM EDT 8:48 PM EDT
Nautical Twilight 5:01 AM EDT 9:23 PM EDT
Astronomical Twilight 4:22 AM EDT 10:02 PM EDT
Moon 8:23 PM EDT (7/16) 5:42 AM EDT (7/16)
Length of Visible Light 15h 12m
Length of Day
14h 14m
Full, 100% of the Moon is Illuminated
Jul 16
Full
Jul 16
Full
Jul 24
Last Quarter
Jul 31
New
Aug 7
First Quarter

Hourly Weather History & Observations

Time (EDT) Temp. Heat Index Dew Point Humidity Pressure Visibility Wind Dir Wind Speed Gust Speed Precip Events Conditions
12:58 AM 81.0 °F 88.6 °F 78.1 °F 91% 30.09 in 10.0 mi South 3.5 mph - N/A   Clear
1:58 AM 82.0 °F 91.0 °F 78.1 °F 88% 30.08 in 10.0 mi Calm Calm - N/A   Clear
2:58 AM 79.0 °F - 77.0 °F 94% 30.07 in 10.0 mi Calm Calm - N/A   Clear
3:58 AM 79.0 °F - 75.9 °F 90% 30.06 in 9.0 mi Calm Calm - N/A   Clear
4:58 AM 81.0 °F 89.2 °F 79.0 °F 94% 30.07 in 9.0 mi SW 3.5 mph - N/A   Clear
5:58 AM 81.0 °F 89.2 °F 79.0 °F 94% 30.09 in 10.0 mi South 3.5 mph - N/A   Clear
6:58 AM 81.0 °F 89.2 °F 79.0 °F 94% 30.11 in 10.0 mi Calm Calm - N/A   Clear
7:58 AM 84.0 °F 93.7 °F 77.0 °F 79% 30.12 in 10.0 mi SSW 3.5 mph - N/A   Clear
8:58 AM 84.9 °F 95.3 °F 77.0 °F 77% 30.13 in 10.0 mi SSW 5.8 mph - N/A   Clear
9:58 AM 87.1 °F 98.8 °F 77.0 °F 72% 30.13 in 10.0 mi SW 5.8 mph - N/A   Clear
10:58 AM 87.1 °F 101.5 °F 79.0 °F 77% 30.13 in 10.0 mi SSW 8.1 mph - N/A   Clear
11:58 AM 88.0 °F 101.3 °F 78.1 °F 72% 30.13 in 10.0 mi SSW 9.2 mph - N/A   Clear
12:58 PM 88.0 °F 101.3 °F 78.1 °F 72% 30.13 in 10.0 mi SW 9.2 mph - N/A   Clear
1:58 PM 89.1 °F 103.2 °F 78.1 °F 70% 30.12 in 10.0 mi SSW 10.4 mph - N/A   Clear
2:58 PM 88.0 °F 103.1 °F 79.0 °F 75% 30.10 in 10.0 mi South 11.5 mph - N/A   Clear
3:58 PM 89.1 °F 104.4 °F 79.0 °F 72% 30.10 in 10.0 mi SSW 11.5 mph - N/A   Clear
4:58 PM 88.0 °F 101.3 °F 78.1 °F 72% 30.09 in 10.0 mi South 12.7 mph - N/A   Clear
5:58 PM 86.0 °F 96.9 °F 77.0 °F 74% 30.10 in 10.0 mi South 11.5 mph - N/A   Clear
6:58 PM 84.9 °F 96.6 °F 78.1 °F 80% 30.09 in 10.0 mi SSW 12.7 mph - N/A   Clear
7:58 PM 84.0 °F 93.7 °F 77.0 °F 79% 30.08 in 10.0 mi SSW 9.2 mph - N/A   Clear
8:58 PM 84.0 °F 94.8 °F 78.1 °F 82% 30.09 in 10.0 mi SSW 10.4 mph - N/A   Clear
9:58 PM 84.0 °F 94.8 °F 78.1 °F 82% 30.10 in 10.0 mi SSW 8.1 mph - N/A   Clear
10:58 PM 84.0 °F 94.8 °F 78.1 °F 82% 30.11 in 10.0 mi SSW 6.9 mph - N/A   Clear
11:58 PM 84.0 °F 94.8 °F 78.1 °F 82% 30.12 in 10.0 mi SW 11.5 mph - N/A   Clear